User: anonymous   Login
Location: Byszew
(52.1813°N, 19.2693°E)
Time: 02:41:22
(UTC+00:00)
Language:

Cosmos 1000 Rocket - Orbit

View from above orbital plane
View from above orbital plane
View from above satellite
View from above satellite

Ground track
Ground track

The orbit data is extracted from the following two-line orbital elements,

1 10777U 78034B   21127.87583343 -.00000004  00000-0 -19560-4 0  9999
2 10777  82.9426 253.8358 0026348 175.7727 297.3851 13.77438486165961
Epoch (UTC): 07 May 2021 21:01:12
Eccentricity: 0.0026348
inclination: 82.9426°
perigee height: 953 km
apogee height: 992 km
right ascension of ascending node: 253.8358°
argument of perigee: 175.7727°
revolutions per day: 13.77438486
mean anomaly at epoch: 297.3851°
orbit number at epoch: 16596

The dashed part of the orbit path shows where the satellite is in the earth's shadow,  

DLR